SM2GSR-2 Weather Reports


Display with metric or nautical units.
time (UTC)temp
F
wind
direction
speed
MPH
gust
MPH
rain 1hr
in
rain 24hr
in
rain mn
in
humidity
%
barometer
mb
20260506062503 39 287 6.0 9.0 0.00 0.00 0.00 68 1000.3
20260506062003 39 277 1.0 8.0 0.00 0.00 0.00 69 1000.2
20260506061503 38 264 5.0 12.0 0.00 0.00 0.00 70 1000.1
20260506051003 35 311 4.0 8.0 0.00 0.00 0.00 75 999.8
20260506050503 35 284 5.0 12.0 0.00 0.00 0.00 75 999.8
20260506045003 35 237 2.0 9.0 0.00 0.00 0.00 76 999.7
20260506044504 35 293 2.0 8.0 0.00 0.00 0.00 76 999.6
20260506044004 34 273 3.0 10.0 0.00 0.00 0.00 77 999.5
20260506043503 34 286 1.0 5.0 0.00 0.00 0.00 78 999.5
20260506043004 33 237 0.0 0.0 0.00 0.00 0.00 78 999.5
20260506042503 33 267 0.0 0.0 0.00 0.00 0.00 78 999.5
20260506042003 33 288 0.0 0.0 0.00 0.00 0.00 78 999.5
20260506041503 33 288 0.0 0.0 0.00 0.00 0.00 79 999.4
20260506041003 32 305 0.0 0.0 0.00 0.00 0.00 79 999.4
20260506040503 32 262 0.0 0.0 0.00 0.00 0.00 79 999.4
20260506040004 32 243 0.0 3.0 0.00 0.00 0.00 80 999.4
20260506035003 32 281 0.0 3.0 0.00 0.00 0.00 80 999.3
20260506034503 32 289 1.0 7.0 0.00 0.00 0.00 80 999.2
20260506034003 31 268 1.0 3.0 0.00 0.00 0.00 81 999.2
20260506033503 31 270 0.0 5.0 0.00 0.00 0.00 81 999.3
20260506033004 31 258 0.0 5.0 0.00 0.00 0.00 81 999.3
20260506032503 30 255 0.0 1.0 0.00 0.00 0.00 81 999.3
20260506032004 30 236 1.0 6.0 0.00 0.00 0.00 81 999.3
20260506031503 30 244 0.0 0.0 0.00 0.00 0.00 82 999.2
20260506031003 30 255 0.0 0.0 0.00 0.00 0.00 82 999.1
20260506030503 30 273 1.0 5.0 0.00 0.00 0.00 82 999.2
20260506030004 30 244 1.0 5.0 0.00 0.00 0.00 82 999.1
20260506025004 30 221 0.0 0.0 0.00 0.00 0.00 82 999.1
20260506024504 30 261 0.0 0.0 0.00 0.00 0.00 82 999.1
20260506024003 30 271 0.0 0.0 0.00 0.00 0.00 82 999.1
20260506023503 30 251 0.0 0.0 0.00 0.00 0.00 81 999.1
20260506022504 30 228 0.0 0.0 0.00 0.00 0.00 81 999.0
20260506022003 30 248 0.0 0.0 0.00 0.00 0.00 81 999.0
20260506021004 30 238 0.0 0.0 0.00 0.00 0.00 81 998.9
20260506020004 30 243 0.0 0.0 0.00 0.00 0.00 81 998.9
20260506015004 30 274 0.0 0.0 0.00 0.00 0.00 81 998.9
20260506014503 29 219 0.0 0.0 0.00 0.00 0.00 81 998.9
20260506014003 29 212 0.0 0.0 0.00 0.00 0.00 81 998.8
20260506013503 29 272 0.0 0.0 0.00 0.00 0.00 80 998.8
20260506013003 29 268 0.0 0.0 0.00 0.00 0.00 80 998.8
20260506012504 29 268 0.0 0.0 0.00 0.00 0.00 81 998.7
20260506012003 29 268 0.0 0.0 0.00 0.00 0.00 81 998.7
20260506011503 29 268 0.0 0.0 0.00 0.00 0.00 80 998.7
20260506011003 29 268 0.0 0.0 0.00 0.00 0.00 80 998.7
20260506010003 29 231 0.0 0.0 0.00 0.00 0.00 80 998.7
20260506005503 29 246 0.0 0.0 0.00 0.00 0.00 80 998.6
20260506005003 29 246 0.0 0.0 0.00 0.00 0.00 79 998.6
20260506004503 29 246 0.0 0.0 0.00 0.00 0.00 79 998.6
20260506003503 30 237 0.0 0.0 0.00 0.00 0.00 79 998.6
20260506003003 30 237 0.0 0.0 0.00 0.00 0.00 79 998.6
20260506002504 30 263 0.0 0.0 0.00 0.00 0.00 79 998.5
20260506002003 29 263 0.0 0.0 0.00 0.00 0.00 79 998.5
20260506001504 29 262 0.0 0.0 0.00 0.00 0.00 79 998.5
20260506001003 29 263 0.0 0.0 0.00 0.00 0.00 80 998.5
20260506000503 29 263 0.0 0.0 0.00 0.00 0.00 80 998.5
20260506000004 29 260 0.0 0.0 0.00 0.00 0.00 81 998.5
20260505235504 28 244 0.0 0.0 0.00 0.00 0.00 81 998.5
20260505234504 28 232 0.0 0.0 0.00 0.00 0.00 79 998.5
20260505233507 29 232 0.0 0.0 0.00 0.00 0.00 78 998.6
20260505233005 29 232 0.0 0.0 0.00 0.00 0.00 79 998.6
20260505232504 29 232 0.0 0.0 0.00 0.00 0.00 78 998.6
20260505232004 29 232 0.0 0.0 0.00 0.00 0.00 78 998.6
20260505231503 29 260 0.0 0.0 0.00 0.00 0.00 77 998.6
20260505231003 29 260 0.0 0.0 0.00 0.00 0.00 76 998.6
20260505230503 30 260 0.0 0.0 0.00 0.00 0.00 75 998.6
20260505225504 30 259 0.0 0.0 0.00 0.00 0.00 73 998.5
20260505225004 31 259 0.0 0.0 0.00 0.00 0.00 73 998.6
20260505224504 31 259 0.0 0.0 0.00 0.00 0.00 73 998.6
20260505223503 31 252 0.0 0.0 0.00 0.00 0.00 73 998.6
20260505223003 31 250 0.0 0.0 0.00 0.00 0.00 73 998.6
20260505222503 31 273 0.0 0.0 0.00 0.00 0.00 73 998.6
20260505222003 31 272 0.0 0.0 0.00 0.00 0.00 73 998.5
20260505221003 31 277 3.0 8.0 0.00 0.00 0.00 73 998.5
20260505220504 31 258 0.0 0.0 0.00 0.00 0.00 73 998.4
20260505220003 31 275 0.0 0.0 0.00 0.00 0.00 72 998.4
20260505215503 31 279 0.0 0.0 0.00 0.00 0.00 71 998.4
20260505215003 32 279 0.0 0.0 0.00 0.00 0.00 71 998.4
20260505214503 32 279 0.0 0.0 0.00 0.00 0.00 70 998.4
20260505214003 32 279 0.0 0.0 0.00 0.00 0.00 70 998.4
20260505213503 33 279 0.0 7.0 0.00 0.00 0.00 70 998.3
20260505212503 33 277 5.0 9.0 0.00 0.00 0.00 70 998.3
20260505212003 33 295 2.0 7.0 0.00 0.00 0.00 70 998.2
20260505211504 33 284 3.0 8.0 0.00 0.00 0.00 69 998.2
20260505211003 33 276 2.0 6.0 0.00 0.00 0.00 69 998.2
20260505210503 33 250 1.0 3.0 0.00 0.00 0.00 68 998.1
20260505210003 33 296 0.0 0.0 0.00 0.00 0.00 68 998.1
20260505205503 33 239 0.0 0.0 0.00 0.00 0.00 68 998.1
20260505205003 33 274 0.0 0.0 0.00 0.00 0.00 68 998.0
20260505204003 33 266 0.0 0.0 0.00 0.00 0.00 68 998.0
20260505203503 33 248 0.0 0.0 0.00 0.00 0.00 68 998.0
20260505203004 33 255 0.0 0.0 0.00 0.00 0.00 69 998.0
20260505202503 33 276 0.0 0.0 0.00 0.00 0.00 69 998.0
20260505201503 32 242 0.0 0.0 0.00 0.00 0.00 70 997.9
20260505201003 33 242 0.0 0.0 0.00 0.00 0.00 69 997.8
20260505200503 33 242 0.0 0.0 0.00 0.00 0.00 68 997.8
20260505195504 34 242 0.0 0.0 0.00 0.00 0.00 66 997.8
20260505195003 34 242 0.0 0.0 0.00 0.00 0.00 66 997.8
20260505194503 34 241 0.0 0.0 0.00 0.00 0.00 66 997.8
20260505194004 34 240 0.0 0.0 0.00 0.00 0.00 66 997.7
20260505193503 34 244 0.0 0.0 0.00 0.00 0.00 66 997.6
20260505193003 34 263 0.0 0.0 0.00 0.00 0.00 65 997.6
20260505192503 34 270 0.0 0.0 0.00 0.00 0.00 63 997.6
20260505192003 35 270 0.0 0.0 0.00 0.00 0.00 61 997.6
20260505191003 36 270 0.0 0.0 0.00 0.00 0.00 60 997.5
20260505190503 36 289 0.0 0.0 0.00 0.00 0.00 59 997.5
20260505190004 36 282 0.0 0.0 0.00 0.00 0.00 59 997.4
20260505185503 37 279 0.0 0.0 0.00 0.00 0.00 58 997.4
20260505185004 37 269 0.0 5.0 0.00 0.00 0.00 58 997.3
20260505184504 37 262 4.0 10.0 0.00 0.00 0.00 57 997.3
20260505184003 37 289 6.0 12.0 0.00 0.00 0.00 57 997.3
20260505183504 37 273 7.0 12.0 0.00 0.00 0.00 57 997.2
20260505183004 38 285 1.0 12.0 0.00 0.00 0.00 56 997.2
20260505182504 38 277 1.0 10.0 0.00 0.00 0.00 56 997.2
20260505182003 38 307 5.0 10.0 0.00 0.00 0.00 56 997.2
20260505181003 38 290 3.0 12.0 0.00 0.00 0.00 57 997.1
20260505180503 38 303 5.0 13.0 0.00 0.00 0.00 56 997.1
20260505180004 38 272 5.0 7.0 0.00 0.00 0.00 57 997.0
20260505175504 38 312 6.0 17.0 0.00 0.00 0.00 59 997.1
20260505175004 38 290 5.0 10.0 0.00 0.00 0.00 58 997.1
20260505174503 39 288 3.0 12.0 0.00 0.00 0.00 57 997.1
20260505174003 39 273 6.0 12.0 0.00 0.00 0.00 56 997.0
20260505173503 39 279 5.0 12.0 0.00 0.00 0.00 54 996.9
20260505173003 39 270 9.0 15.0 0.00 0.00 0.00 52 996.8
20260505172503 40 276 5.0 12.0 0.00 0.00 0.00 51 996.8
20260505172003 40 276 7.0 16.0 0.00 0.00 0.00 50 996.7
20260505171504 40 268 6.0 12.0 0.00 0.00 0.00 49 996.7
20260505171003 40 250 3.0 10.0 0.00 0.00 0.00 49 996.7
20260505170506 40 289 4.0 10.0 0.00 0.00 0.00 48 996.6
20260505170003 40 264 5.0 12.0 0.00 0.00 0.00 48 996.6
20260505165503 40 299 6.0 14.0 0.00 0.00 0.00 47 996.7
20260505164504 41 308 5.0 7.0 0.00 0.00 0.00 45 996.5
20260505164004 42 309 5.0 9.0 0.00 0.00 0.00 43 996.4
20260505163003 42 274 0.0 5.0 0.00 0.00 0.00 44 996.3
20260505162503 41 289 5.0 8.0 0.00 0.00 0.00 45 996.4
20260505162003 41 292 0.0 0.0 0.00 0.00 0.00 45 996.4
20260505161504 42 264 3.0 12.0 0.00 0.00 0.00 45 996.4
20260505161003 42 317 7.0 15.0 0.00 0.00 0.00 44 996.5
20260505153003 41 308 6.0 10.0 0.00 0.00 0.00 41 996.2
20260505152504 42 299 7.0 15.0 0.00 0.00 0.00 40 996.1
20260505152003 42 299 2.0 8.0 0.00 0.00 0.00 41 996.1
20260505151503 41 306 10.0 18.0 0.00 0.00 0.00 41 996.1
20260505151003 41 290 6.0 12.0 0.00 0.00 0.00 42 996.1
20260505140503 41 280 3.0 8.0 0.00 0.00 0.00 48 995.9
20260505125004 46 302 12.0 20.0 0.00 0.00 0.00 35 994.9
20260505124503 45 253 8.0 14.0 0.00 0.00 0.00 36 994.8
20260505124004 45 297 8.0 18.0 0.00 0.00 0.00 36 994.8
20260505123503 45 308 6.0 16.0 0.00 0.00 0.00 35 994.9
20260505123003 46 301 7.0 12.0 0.00 0.00 0.00 36 994.8
20260505122003 44 310 6.0 13.0 0.00 0.00 0.00 38 994.8
20260505121503 45 301 10.0 16.0 0.00 0.00 0.00 37 994.8
20260505121003 45 264 6.0 15.0 0.00 0.00 0.00 38 994.7
20260505120503 44 292 7.0 15.0 0.00 0.00 0.00 38 994.6
20260505120003 45 284 9.0 14.0 0.00 0.00 0.00 36 994.7
20260505115503 45 326 7.0 12.0 0.00 0.00 0.00 37 994.6
20260505115003 45 271 7.0 20.0 0.00 0.00 0.00 36 994.6
20260505114503 45 303 12.0 21.0 0.00 0.00 0.00 37 994.6
20260505114003 45 326 7.0 15.0 0.00 0.00 0.00 35 994.6
20260505113503 45 311 6.0 14.0 0.00 0.00 0.00 37 994.5
20260505113003 44 311 9.0 17.0 0.00 0.00 0.00 37 994.5
20260505112503 44 297 6.0 12.0 0.00 0.00 0.00 39 994.5
20260505112004 44 332 10.0 17.0 0.00 0.00 0.00 40 994.5
20260505111503 43 318 10.0 16.0 0.00 0.00 0.00 41 994.4
20260505110504 45 312 9.0 16.0 0.00 0.00 0.00 37 994.4
20260505102003 43 303 8.0 14.0 0.00 0.04 0.00 41 994.1
20260505101504 43 298 10.0 18.0 0.00 0.04 0.00 39 994.1
20260505101003 44 292 7.0 16.0 0.00 0.04 0.00 39 994.0
20260505100503 44 314 7.0 15.0 0.00 0.04 0.00 41 993.9
20260505100004 44 304 9.0 13.0 0.00 0.04 0.00 40 993.8
20260505095503 44 283 6.0 14.0 0.00 0.04 0.00 42 993.8
20260505094504 43 314 9.0 16.0 0.00 0.04 0.00 42 993.7
20260505094003 43 308 7.0 13.0 0.00 0.04 0.00 43 993.8
20260505093504 43 314 10.0 14.0 0.00 0.04 0.00 42 993.8
20260505093004 43 320 5.0 12.0 0.00 0.04 0.00 44 993.8
20260505092503 44 338 9.0 16.0 0.00 0.04 0.00 40 993.7
20260505092005 44 311 7.0 13.0 0.00 0.04 0.00 42 993.6
20260505091004 43 304 12.0 18.0 0.00 0.04 0.00 41 993.6
20260505090504 44 292 10.0 24.0 0.00 0.04 0.00 41 993.6
20260505085503 43 283 6.0 14.0 0.00 0.04 0.00 43 993.5
20260505085004 43 309 6.0 13.0 0.00 0.04 0.00 44 993.5
20260505084503 42 259 7.0 12.0 0.00 0.04 0.00 45 993.4
20260505084004 43 337 6.0 15.0 0.00 0.04 0.00 44 993.5
20260505083503 42 336 10.0 16.0 0.00 0.04 0.00 44 993.4
20260505082003 42 293 10.0 17.0 0.00 0.04 0.00 46 993.3
20260505081504 42 318 6.0 15.0 0.00 0.04 0.00 46 993.2
20260505080503 41 286 9.0 13.0 0.00 0.04 0.00 47 993.2
20260505080003 42 325 9.0 17.0 0.00 0.04 0.00 45 993.1
20260505075504 42 305 6.0 12.0 0.00 0.04 0.00 46 993.2
20260505075004 42 316 3.0 12.0 0.00 0.04 0.00 47 993.2
20260505074504 41 329 7.0 15.0 0.00 0.04 0.00 47 993.1
20260505074004 41 316 7.0 15.0 0.00 0.04 0.00 49 993.1
20260505073503 41 311 9.0 20.0 0.00 0.04 0.00 50 993.1
20260505073003 40 289 10.0 16.0 0.00 0.04 0.00 50 993.0
20260505072503 40 314 10.0 17.0 0.00 0.04 0.00 50 992.9
20260505072003 40 312 9.0 15.0 0.00 0.04 0.00 50 992.9
20260505071504 39 302 9.0 20.0 0.00 0.04 0.00 50 993.0
20260505071003 39 303 9.0 16.0 0.00 0.04 0.00 50 993.0
20260505070503 40 305 11.0 20.0 0.00 0.04 0.00 50 992.9
20260505070004 39 267 7.0 13.0 0.00 0.04 0.00 53 992.9